TimeCST,TemperatureF,Dew PointF,Humidity,Sea Level PressureIn,VisibilityMPH,Wind Direction,Wind SpeedMPH,Gust SpeedMPH,PrecipitationIn,Events,Conditions,WindDirDegrees,DateUTC
12:38 AM,64.4,59.0,83,29.93,10.0,WNW,6.9,-,N/A,,Overcast,290,2012-12-04 06:38:00
12:42 AM,64.4,59.0,83,29.94,10.0,WNW,10.4,-,N/A,Rain,Light Rain,300,2012-12-04 06:42:00
12:51 AM,62.6,60.8,94,29.94,7.0,West,11.5,21.9,N/A,Rain,Light Rain,270,2012-12-04 06:51:00
12:55 AM,61.5,60.1,95,29.95,5.0,WNW,11.5,21.9,0.02,Rain,Light Rain,300,2012-12-04 06:55:00
12:56 AM,60.8,60.8,100,29.95,5.0,WNW,9.2,21.9,N/A,Rain,Light Rain,300,2012-12-04 06:56:00
12:57 AM,60.8,60.8,100,29.95,5.0,WNW,9.2,21.9,N/A,Rain,Light Rain,300,2012-12-04 06:57:00
1:02 AM,60.8,60.8,100,29.95,4.0,NW,6.9,-,N/A,Rain,Heavy Rain,310,2012-12-04 07:02:00
1:13 AM,60.8,60.8,100,29.96,2.5,West,4.6,-,N/A,Rain,Rain,280,2012-12-04 07:13:00
1:17 AM,59.0,59.0,100,29.96,1.8,WNW,3.5,-,N/A,Rain,Heavy Rain,300,2012-12-04 07:17:00
1:18 AM,59.0,59.0,100,29.96,1.5,WNW,3.5,-,N/A,Rain,Heavy Rain,300,2012-12-04 07:18:00
1:20 AM,59.0,59.0,100,29.96,1.5,West,3.5,-,N/A,Rain,Heavy Rain,270,2012-12-04 07:20:00
1:21 AM,59.0,59.0,100,29.96,1.5,Calm,Calm,-,N/A,Rain,Rain,0,2012-12-04 07:21:00
1:22 AM,59.0,59.0,100,29.96,1.8,Calm,Calm,-,N/A,Rain,Light Rain,0,2012-12-04 07:22:00
1:24 AM,59.0,59.0,100,29.96,2.0,Variable,3.5,-,N/A,Rain,Light Rain,0,2012-12-04 07:24:00
1:25 AM,59.0,59.0,100,29.96,2.5,WNW,4.6,-,N/A,Rain,Light Rain,290,2012-12-04 07:25:00
1:26 AM,59.0,59.0,100,29.96,2.5,WNW,4.6,-,N/A,Rain,Light Rain,300,2012-12-04 07:26:00
1:27 AM,59.0,59.0,100,29.96,4.0,WNW,4.6,-,N/A,Rain,Light Rain,290,2012-12-04 07:27:00
1:53 AM,59.0,59.0,100,29.97,7.0,Variable,5.8,-,N/A,Rain,Light Rain,0,2012-12-04 07:53:00
1:55 AM,58.5,58.5,100,29.97,8.0,NW,5.8,-,0.26,Rain,Light Rain,320,2012-12-04 07:55:00
2:13 AM,57.2,57.2,100,29.98,10.0,NW,6.9,-,N/A,Rain,Light Rain,310,2012-12-04 08:13:00
2:20 AM,57.2,57.2,100,29.98,10.0,NNW,5.8,-,N/A,Rain,Light Rain,330,2012-12-04 08:20:00
2:35 AM,55.4,55.4,100,29.98,10.0,NW,6.9,-,N/A,Rain,Light Rain,320,2012-12-04 08:35:00
2:38 AM,55.4,55.4,100,29.98,10.0,NNW,4.6,-,N/A,,Overcast,330,2012-12-04 08:38:00
2:48 AM,55.4,55.4,100,29.98,10.0,NNW,8.1,-,N/A,Rain,Light Rain,340,2012-12-04 08:48:00
2:55 AM,55.2,55.2,100,29.99,10.0,NW,5.8,-,0.03,Rain,Light Rain,310,2012-12-04 08:55:00
3:14 AM,55.4,55.4,100,30.00,5.0,NW,3.5,-,N/A,Rain,Rain,320,2012-12-04 09:14:00
3:36 AM,53.6,53.6,100,30.00,4.0,NNW,8.1,-,N/A,Rain,Heavy Rain,340,2012-12-04 09:36:00
3:40 AM,53.6,53.6,100,30.00,4.0,NNW,9.2,-,N/A,Rain,Heavy Rain,340,2012-12-04 09:40:00
3:41 AM,53.6,53.6,100,30.00,4.0,NNW,9.2,-,N/A,Rain,Heavy Rain,340,2012-12-04 09:41:00
3:43 AM,53.6,53.6,100,30.00,4.0,NNW,8.1,-,N/A,Rain,Heavy Rain,340,2012-12-04 09:43:00
3:52 AM,53.6,53.6,100,30.00,4.0,NNW,6.9,-,N/A,Rain,Heavy Rain,340,2012-12-04 09:52:00
3:55 AM,54.0,54.0,100,30.00,4.0,NW,6.9,-,0.23,Rain,Rain,320,2012-12-04 09:55:00
4:12 AM,53.6,53.6,100,30.01,5.0,Variable,4.6,-,N/A,Rain,Rain,0,2012-12-04 10:12:00
4:13 AM,53.6,53.6,100,30.01,5.0,NW,4.6,-,N/A,Rain,Rain,310,2012-12-04 10:13:00
4:14 AM,53.6,53.6,100,30.01,5.0,NW,5.8,-,N/A,Rain,Rain,320,2012-12-04 10:14:00
4:18 AM,53.6,53.6,100,30.01,5.0,NNW,5.8,-,N/A,Rain,Rain,340,2012-12-04 10:18:00
4:48 AM,53.6,53.6,100,30.04,10.0,North,12.7,-,N/A,Rain,Rain,360,2012-12-04 10:48:00
4:55 AM,52.5,52.5,100,30.04,9.0,NNW,10.4,-,0.15,Rain,Rain,330,2012-12-04 10:55:00
5:09 AM,51.8,51.8,100,30.04,10.0,North,15.0,21.9,N/A,Rain,Light Rain,360,2012-12-04 11:09:00
5:15 AM,50.0,50.0,100,30.04,10.0,North,13.8,21.9,N/A,Rain,Light Rain,10,2012-12-04 11:15:00
5:16 AM,50.0,50.0,100,30.04,10.0,North,12.7,21.9,N/A,Rain,Light Rain,10,2012-12-04 11:16:00
5:20 AM,50.0,50.0,100,30.04,10.0,North,12.7,-,N/A,Rain,Light Rain,360,2012-12-04 11:20:00
5:34 AM,50.0,50.0,100,30.05,10.0,North,10.4,18.4,N/A,Rain,Light Rain,10,2012-12-04 11:34:00
5:55 AM,49.5,49.1,99,30.06,10.0,NNE,5.8,-,0.04,Rain,Rain,20,2012-12-04 11:55:00
6:04 AM,50.0,48.2,94,30.06,10.0,NNE,9.2,-,N/A,Rain,Rain,30,2012-12-04 12:04:00
6:51 AM,50.0,48.2,94,30.11,10.0,North,6.9,-,N/A,,Overcast,360,2012-12-04 12:51:00
6:55 AM,49.3,48.9,99,30.11,10.0,North,5.8,-,0.05,,Overcast,360,2012-12-04 12:55:00
7:03 AM,50.0,50.0,100,30.11,10.0,North,6.9,-,N/A,,Overcast,10,2012-12-04 13:03:00
7:04 AM,50.0,50.0,100,30.11,10.0,North,6.9,-,N/A,,Light Drizzle,10,2012-12-04 13:04:00
7:12 AM,50.0,50.0,100,30.12,10.0,North,5.8,-,N/A,,Light Drizzle,350,2012-12-04 13:12:00
7:16 AM,50.0,50.0,100,30.12,10.0,NNW,5.8,-,N/A,,Overcast,340,2012-12-04 13:16:00
7:55 AM,49.5,49.1,99,30.13,10.0,North,5.8,-,0.00,,Overcast,10,2012-12-04 13:55:00
8:35 AM,50.0,48.2,94,30.14,10.0,North,8.1,-,N/A,,Overcast,350,2012-12-04 14:35:00
8:55 AM,49.3,47.5,94,30.15,10.0,NNW,8.1,-,N/A,,Overcast,340,2012-12-04 14:55:00
9:55 AM,48.7,45.0,87,30.18,10.0,North,5.8,-,N/A,,Overcast,360,2012-12-04 15:55:00
10:55 AM,49.8,44.2,81,30.18,10.0,North,11.5,-,N/A,,Mostly Cloudy,360,2012-12-04 16:55:00
11:55 AM,51.1,40.6,67,30.18,10.0,North,11.5,-,N/A,,Clear,360,2012-12-04 17:55:00
12:55 PM,53.1,37.6,56,30.19,10.0,North,6.9,-,N/A,,Clear,10,2012-12-04 18:55:00
1:55 PM,54.5,35.1,48,30.19,10.0,NNW,12.7,-,N/A,,Clear,340,2012-12-04 19:55:00
2:55 PM,55.9,34.3,44,30.19,10.0,North,8.1,-,N/A,,Clear,350,2012-12-04 20:55:00
3:55 PM,55.4,32.4,42,30.23,10.0,North,6.9,-,N/A,,Clear,360,2012-12-04 21:55:00
4:55 PM,51.6,32.4,48,30.25,10.0,Calm,Calm,-,N/A,,Clear,0,2012-12-04 22:55:00
5:55 PM,49.5,32.0,51,30.27,10.0,Calm,Calm,-,N/A,,Clear,0,2012-12-04 23:55:00
6:55 PM,49.5,32.2,51,30.26,10.0,Calm,Calm,-,N/A,,Clear,0,2012-12-05 00:55:00
7:55 PM,45.5,34.2,65,30.28,10.0,Calm,Calm,-,N/A,,Clear,0,2012-12-05 01:55:00
8:55 PM,45.9,34.7,65,30.30,10.0,Calm,Calm,-,N/A,,Clear,0,2012-12-05 02:55:00
9:55 PM,40.1,36.1,86,30.32,10.0,Calm,Calm,-,N/A,,Clear,0,2012-12-05 03:55:00
10:55 PM,38.8,35.4,88,30.32,10.0,Calm,Calm,-,N/A,,Clear,0,2012-12-05 04:55:00
11:55 PM,38.1,34.7,87,30.33,10.0,Calm,Calm,-,N/A,,Clear,0,2012-12-05 05:55:00